www.pogodaiklimat.ru

Погода и климат >> Архив погоды >> Индия >> Махараштра >> Вардха


ПОГОДА в Вардхе

  • Прогноз погоды в Вардхе
  • Монитор погоды в Вардхе

АРХИВ ПОГОДЫ в Вардхе

Время (UTC), дата Ветер
(напр.,м/с)
 
Видим.   Явления Облачность Т
(С)
Тd
(С)
f
(%)
Тe
(С)
Тes
(С)
Комфортность P
(гПа)
Po
(гПа)
Тmin
(С)
Tmax
(С)
R
(мм)
R24
(мм)
S
(см)
12 8.09 З 2 2000 м 10/5 600 м
[Frnb As op]
+27.4 +24.5 84 +39 +39 очень
душно
1000.9 969.2 +28.0
03 9.09 З 2 2000 м 10/4 600 м
[Sc Ac trans]
+26.0 +24.6 92 +37 +38 очень
душно
1003.8 971.9 +24.8 2
06 9.09 З 2 4000 м 8/0
[Ac trans]
+29.0 +24.7 78 +41 +52 опасность
перегрева
1003.4 971.8
09 9.09 З 1 2000 м 10/5 200 м
[Frnb As op]
+25.0 +24.1 95 +34 +36 очень
душно
1000.5 968.6 6
12 9.09 З 2 2000 м 10/4 600 м
[Sc Ac trans]
+27.2 +24.0 83 +38 +38 очень
душно
999.5 967.8 +31.8 0.4
03 10.09 З 2 2000 м 9/4 600 м
[Sc Ac trans]
+26.4 +24.4 89 +37 +39 очень
душно
1003.5 971.6 +24.4 2
06 10.09 З 3 2000 м 10/4 600 м
[Sc Ac trans]
+28.5 +24.1 77 +40 +43 очень
душно
1003.3 971.6
09 10.09 З 3 10 км 6/0
[Ac trans]
+31.5 +24.9 68 +45 +53 опасность
перегрева
1000.9 969.6
12 10.09 З 3 10 км 6/0
[Ac trans]
+30.1 +24.3 71 +42 +43 опасность
перегрева
1000.8 969.4 +32.0
03 11.09 З 2 2000 м 10/5 600 м
[Frnb As op]
+26.2 +23.6 86 +36 +36 очень
душно
1005.5 973.5 +24.8
06 11.09 З 3 2000 м 10/5 600 м
[Frnb As op]
+27.0 +24.1 84 +37 +39 очень
душно
1004.6 972.7 0.0
09 11.09 З 4 2000 м 10/5 600 м
[Frnb As op]
+28.0 +24.6 82 +40 +41 очень
душно
1002.6 970.9 0.0
12 11.09 З 5 2000 м 10/4 600 м
[Sc Ac trans]
+26.0 +24.6 92 +37 +37 очень
душно
1001.8 969.9 +28.5 0.0
03 12.09 З 2 2000 м 10/4 600 м
[Sc Ac trans]
+25.2 +23.4 90 +34 +35 очень
душно
1006.2 974.1 +23.8 3
09 12.09 З 2 4000 м 10/5 600 м
[Frnb As op]
+29.0 +24.7 78 +41 +43 опасность
перегрева
1002.9 971.3
12 12.09 З 2 2000 м 10/4 600 м
[Sc Ac trans]
+26.4 +25.0 92 +38 +38 очень
душно
1003.1 971.2 +29.2 10
03 13.09 З 2 2000 м 10/4 600 м
[Sc Ac trans]
+25.0 +22.9 88 +33 +35 очень
душно
1007.7 975.5 +23.8 10
06 13.09 З 4 2000 м 10/4 600 м
[Sc Ac trans]
+28.0 +23.7 77 +38 +42 очень
душно
1006.6 974.8
09 13.09 З 2 4000 м 9/0
[Ac trans]
+29.0 +23.2 71 +39 +45 очень
душно
1003.6 972.0
12 13.09 З 3 4000 м 9/4
[Sc Ac trans]
+27.6 +23.8 80 +38 +38 очень
душно
1003.4 971.6 +30.0
03 14.09 З 1 2000 м 10/5 600 м
[Frnb As op]
+23.5 +22.8 96 +31 +32 очень
душно
1007.4 975.1 +23.0 3
06 14.09 З 3 2000 м 10/5 600 м
[Frnb As op]
+25.4 +23.7 90 +35 +36 очень
душно
1007.2 975.1 1
09 14.09 З 3 2000 м 10/5 600 м
[Frnb As op]
+25.9 +24.4 91 +36 +37 очень
душно
1005.3 973.3 1
12 14.09 З 2 2000 м 10/5 200 м
[Frnb As op]
+25.8 +23.2 86 +35 +35 очень
душно
1005.8 973.8 +27.2 1
03 15.09 З 1 2000 м 8/0
[Ac trans]
+25.0 +23.5 91 +34 +38 очень
душно
1008.2 976.0 +23.6 1
06 15.09 З 1 2000 м 8/0
[Ac trans]
+27.8 +24.0 80 +39 +50 очень
душно
1007.1 975.2

 

Местоположение метеостанции Вардха (Махараштра, Индия): широта 20.67 долгота 78.58 высота над уровнем моря 283 м.

В архиве по умолчанию представлена погода в Вардхе за последнюю неделю. Архивные данные за месяц целиком и за предыдущие месяцы, начиная с января 2011 года, Вы можете получить, выбрав интересующий диапазон дат из раскрывающегося списка и нажав кнопку "Ввод!".


*Определитесь, кто Вы:
робот инопланетянин человек

Внимание! Время в таблицах - всемирное. Для получения местного времени необходимо прибавить поправку, которая равна 5.5 ч.

Смотрите также архив погоды в соседних городах и на ближайших метеорологических станциях:

Погода в Яватмале (Махараштра, Индия) (54 км)
Погода в Нагпуре (Махараштра, Индия) (68 км)
Погода в Амравати (Махараштра, Индия) (88 км)
Погода в Чандрапуре (Махараштра, Индия) (108 км)
Погода в Адилабаде (Телингана, Индия) (114 км)
Погода в Брамапури (Махараштра, Индия) (132 км)
Погода в Бетуле (Мадхья-Прадеш, Индия) (150 км)
Погода в Аколе (Махараштра, Индия) (161 км)
Погода в Вашиме (Махараштра, Индия) (163 км)
Погода в Чхиндваре (Мадхья-Прадеш, Индия) (165 км)

Пояснения к столбцам:

Ветер - указаны скорость ветра в м/с - средняя за 10 мин, порывы в срок и между сроками (в фигурных скобках) и направление, откуда дует ветер: С - северный, СВ - северо-восточный, В - восточный, ЮВ - юго-восточный, Ю - южный, ЮЗ - юго-западный, З - западный, СЗ - северо-западный.
Видимость - горизонтальная дальность видимости в метрах или километрах. При видимости от 1 до 10 км при отсутствии осадков обычно наблюдается дымка, при ухудшении видимости до 1 км и менее - туман. В сухую погоду видимость может ухудшаться дымом, пылью или мглою.
Явления - указаны атмосферные явления, наблюдавшиеся в срок или в последний час перед сроком; фигурными скобками обозначены явления, наблюдавшиеся между сроками (за 1-3 часа до срока); квадратными скобками обозначены град или гололедные отложения с указанием их диаметра в мм.
Облачность - указаны через наклонную черту общая и нижняя облачность в баллах и высота нижней границы облаков в метрах; квадратными скобками обозначены формы облаков: Ci - перистые, Cs - перисто-слоистые, Cc - перисто-кучевые, Ac - высококучевые, As - высокослоистые, Sc - слоисто-кучевые, Ns - слоисто-дождевые, Cu - кучевые, Cb - кучево-дождевые. Подробнее классификацию облаков см. в Атласе облаков (PDF).
T - Температура воздуха - температура, измеренная на высоте 2 м над землей.
Td - Температура точки росы - температура, при понижении до которой содержащийся в воздухе водяной пар достигнет насыщения.
f - Относительная влажность воздуха - влажноcть воздуха, измеренная на высоте 2 м над землей.
Te - Эффективная температура - температура, которую ощущает одетый по сезону человек в тени. Характеристика душности погоды. При расчете учитывается влияние влажности воздуха и скорости ветра на теплоощущения человека.
Tes - Эффективная температура на солнце - температура, которую ощущает человек, с поправкой на солнечный нагрев. Характеристика знойности погоды. Зависит от высоты солнца над горизонтом, облачности и скорости ветра. Ночью, в пасмурную погоду, а также при ветре 12 м/с и более поправка равна нулю.
P - Атмосферное давление - приведенное к уровню моря атмосферное давление.
Po - Атмосферное давление - измеренное на уровне метеостанции атмосферное давление.
Tmin - Минимальная температура - минимум температуры воздуха на высоте 2 м над землей.
Tmax - Максимальная температура - максимум температуры воздуха на высоте 2 м над землей.
R - Количество осадков - Количество выпавших осадков за период времени, мм. При наведении курсора мыши на число - период времени, за который выпало указанное количество осадков.
R24 - Количество осадков - Количество выпавших осадков за 24 часа, мм.
S - Снежный покров - Высота снежного покрова, см. При наведении курсора мыши на число - состояние снежного покрова и степень покрытия местности в баллах.